LiveATC.Net - Listen to live air traffic control over the Internet!


ICAO: LFLL  IATA: LYS   Airport: Lyon-Saint-Exupery Airport
City: Lyon
Country: France   Continent: Europe
LFLL METAR Weather: LFLL 191000Z 14007KT 8000 -RA BKN016 SCT040TCU BKN070 17/15 Q1008 NOSIG
LFLL Flight Activity (FlightAware)

LFLL Tower
Feed Status: UP   Listeners: 2
Listen in your browser - HTML5 player (in browser, HTML5)
Click here to listen with your own player (launches your MP3 player)
LFLL Tower Audio Archives
FacilityFrequency
Lyon Tower120.450

Lyon FIS
Feed Status: UP   Listeners: 0
Listen in your browser - HTML5 player (in browser, HTML5)
Click here to listen with your own player (launches your MP3 player)
Lyon FIS Audio Archives
FacilityFrequency
Lyon FIS135.200

NOTICE

Unauthorized use prohibited. See LiveATC.net Terms of Service


Airport/ARTCC Code
Frequency Search
(e.g., 124.400, 128.75)
Site-wide search
 


Browse LiveATC Feeds
Top 50 LiveATC Feeds
LiveATC Feed Map
Bad Weather Areas

LiveATC FAQ
Offer LiveATC feed
Contact LiveATC.net
Press Inquiries

LiveATC on iPhone
LiveATC on Android

Windows Phone
Windows 8/10

LiveATC Mobile
(Mobile browser)

ATC Audio Archives
Interesting Recordings

LiveATC Forums


Home Page
About LiveATC.net
Make a Donation
Terms of Use
Privacy Policy

Canadian Air Freqs

AIRMETs/SIGMETs

FAA Airport Status
Nat'l Airspace Status
Arrival Demand Charts


Server Software By:
Icecast.org
Liquidsoap